Wind_Speed
43 45 44 44 43 43 42 41 41 39 37 36 37 38 37 36 35 33 31 30 28 25 23 21 19 19 18 17 17 17 17 17 19 22 22 21 20 19 19 19 19 19
43 46 47 46 46 46 46 46 44 42 40 38 37 38 39 39 37 35 33 33 31 28 26 24 22 21 19 18 18 19 19 18 18 20 22 22 21 20 20 20 20 19
47 46 46 44 44 47 47 47 47 45 43 41 40 40 41 42 40 36 35 35 33 30 28 27 25 23 21 20 20 20 20 20 19 19 21 22 22 21 21 21 21 21
50 49 47 43 43 45 45 46 47 47 45 43 42 41 42 43 42 39 36 36 35 31 29 28 26 24 22 22 21 21 22 21 20 19 19 21 22 22 22 22 22 22
52 51 50 46 43 43 43 44 45 46 46 44 43 43 44 45 44 41 38 38 36 32 30 30 28 25 24 24 24 23 23 23 22 20 19 21 22 23 23 22 22 22
52 52 52 49 44 42 42 42 43 44 45 45 44 44 44 45 45 43 42 41 37 33 31 31 30 27 26 25 26 25 24 24 24 21 20 21 22 24 24 23 23 22
51 51 52 51 48 45 43 43 44 44 44 45 45 44 44 46 46 45 46 44 39 34 32 31 31 30 28 27 27 27 26 27 26 23 21 21 22 24 25 24 23 23
54 52 52 52 51 49 46 45 46 45 45 46 46 43 43 45 45 47 49 47 43 37 33 32 32 32 31 28 27 28 28 28 28 24 22 22 22 24 26 25 24 23
56 55 55 54 53 52 51 49 48 47 47 49 48 44 43 44 45 47 49 48 47 42 36 35 35 34 32 29 28 29 29 30 30 26 23 23 23 25 26 27 25 24
58 58 57 57 55 54 54 53 51 49 51 52 51 48 47 47 48 49 49 49 50 46 39 37 37 35 34 30 28 30 32 32 31 28 25 24 24 25 27 27 27 25
58 59 58 57 57 56 55 55 55 53 52 54 54 52 51 50 49 51 51 49 48 44 41 40 39 37 36 33 30 31 34 33 32 30 26 25 25 26 27 28 28 26
55 57 57 56 56 57 56 56 57 56 54 53 54 54 53 50 48 50 51 48 45 43 43 43 41 39 38 36 34 33 35 34 33 32 28 26 25 27 28 29 29 27
57 58 58 57 55 55 56 56 57 57 55 52 50 50 50 49 48 49 50 47 44 44 45 45 42 40 39 39 37 36 35 35 34 33 31 27 26 27 29 30 30 29
62 61 60 61 59 55 55 55 56 56 54 52 50 47 46 47 47 49 48 46 45 46 47 46 43 40 39 40 40 38 36 36 36 35 32 29 27 28 29 30 30 30
64 63 62 66 66 60 58 56 56 55 52 51 51 48 46 45 46 47 47 46 46 47 47 45 42 40 40 40 40 39 38 37 37 36 34 31 29 29 30 30 30 31
60 56 57 66 69 64 61 57 55 54 53 53 52 50 48 46 46 48 47 45 45 46 47 45 42 40 39 39 39 39 40 39 38 37 35 33 30 30 30 30 30 31
62 56 52 61 68 67 65 60 56 55 54 54 53 52 50 49 49 50 47 44 45 46 47 45 42 40 38 38 39 40 40 41 39 38 36 34 32 31 31 31 30 31
62 60 55 58 64 67 67 63 59 56 56 55 54 53 52 52 52 52 48 45 46 47 47 45 43 41 39 39 39 39 40 41 40 38 38 35 32 32 32 32 32 31
54 53 51 51 55 63 67 65 61 58 57 57 56 55 55 55 54 53 49 48 48 48 47 46 44 43 42 41 40 38 38 40 41 39 39 37 34 33 33 34 33 32
59 58 55 50 51 59 65 65 63 60 59 59 59 58 58 58 57 56 53 52 51 50 48 46 45 45 45 42 40 38 37 39 41 40 40 39 36 34 34 35 35 34
65 61 61 59 56 58 63 66 66 64 62 61 60 60 61 61 60 58 56 54 53 52 49 45 43 45 47 44 41 39 38 40 42 42 42 41 39 36 35 36 36 35
67 59 59 62 62 62 64 66 66 66 66 64 62 62 62 62 61 59 57 56 55 53 52 47 41 42 47 46 43 41 40 41 43 42 42 43 41 37 37 37 37 36
72 65 61 63 65 65 65 66 67 68 68 68 67 65 63 60 58 57 57 57 56 55 55 52 44 41 45 47 45 45 44 44 44 43 43 43 41 39 38 38 38 37
76 73 68 67 69 69 67 66 67 67 66 67 68 68 67 63 60 58 57 57 56 55 57 57 50 44 46 47 47 46 46 46 46 45 44 43 41 41 40 39 39 38
78 77 74 71 72 74 72 69 69 68 67 67 67 68 69 68 65 64 62 60 58 56 57 60 57 51 49 50 49 47 47 47 48 48 46 43 41 41 41 40 39 39
78 79 76 72 71 73 74 74 73 73 73 72 71 71 71 71 69 67 65 63 62 60 59 60 59 55 53 53 52 50 49 48 49 49 47 43 42 42 41 40 40 39
Wind_Direction
241 240 236 234 236 237 238 242 244 247 252 249 239 236 236 237 242 248 254 259 262 271 280 278 271 264 265 272 278 283 291 299 311 317 320 320 317 312 309 310 314 317
245 244 240 236 235 238 240 244 246 246 247 245 240 238 238 236 240 245 250 255 258 267 277 278 273 266 262 268 274 280 286 292 302 312 318 320 318 314 310 309 311 315
245 245 242 239 238 240 243 244 245 244 242 239 238 240 240 237 238 241 246 251 254 262 272 274 273 268 261 264 271 277 282 288 296 306 314 319 318 315 312 310 310 313
244 242 241 242 242 243 242 240 241 242 238 235 235 239 239 237 237 239 243 248 251 259 268 270 270 268 263 262 266 273 280 284 291 299 309 315 316 314 312 310 310 311
241 240 241 243 244 242 240 239 239 238 236 234 233 234 236 236 236 238 242 245 248 257 264 266 267 267 264 262 263 269 277 281 286 294 303 311 314 313 312 311 310 309
237 238 238 239 238 237 236 238 238 235 234 233 230 229 232 234 236 237 240 242 245 254 262 263 265 264 263 262 261 266 273 277 281 289 298 306 310 312 312 311 310 309
232 234 235 233 232 233 234 237 236 233 231 229 226 227 230 234 235 236 239 241 243 251 259 261 263 263 263 262 261 263 269 273 277 284 292 300 306 309 311 311 311 309
229 231 233 232 230 230 233 235 235 233 229 224 223 225 230 234 234 235 238 240 241 249 256 258 260 262 263 264 261 261 265 270 274 280 287 295 301 306 309 311 312 311
227 229 231 231 230 230 231 232 234 233 228 223 223 225 229 234 237 237 239 240 241 248 254 255 256 258 261 264 263 260 262 266 271 276 282 290 296 301 306 310 313 312
224 226 228 228 228 228 229 229 231 231 228 225 225 226 230 235 239 239 240 240 241 245 250 252 252 255 258 261 262 260 259 262 268 272 278 285 292 296 302 308 311 311
225 223 223 225 225 226 226 227 228 229 228 226 226 229 232 235 238 239 240 241 241 242 246 248 249 251 254 256 258 258 257 259 264 269 274 280 287 292 297 303 308 309
226 224 221 221 223 224 224 226 227 228 228 227 228 230 233 234 236 239 240 240 240 241 243 246 246 248 251 253 254 255 255 257 261 266 270 275 282 288 293 298 304 307
228 226 224 222 222 225 225 225 227 227 228 229 230 231 232 232 233 235 238 238 238 240 242 243 244 246 248 251 253 253 254 255 258 263 267 271 277 283 288 293 299 303
234 229 228 224 223 227 228 226 226 226 227 229 230 231 230 229 230 232 234 236 237 240 242 242 242 243 246 250 253 254 254 253 255 259 264 268 272 277 282 288 294 300
235 229 227 224 222 225 227 227 226 224 226 228 228 229 229 228 228 229 230 233 235 239 241 242 242 243 245 249 252 255 255 252 251 255 260 264 267 272 277 282 289 295
230 226 225 221 221 222 224 227 227 225 225 226 226 228 230 230 229 228 228 230 233 237 241 243 244 244 246 249 251 254 255 251 248 251 256 261 264 268 272 277 283 288
227 225 224 221 221 221 222 225 226 226 226 225 226 227 229 232 233 231 231 230 231 235 239 243 245 245 246 248 250 253 254 251 248 249 254 258 261 265 269 273 277 282
224 226 228 229 227 222 221 224 226 226 226 225 226 227 228 232 235 235 236 235 234 234 237 241 245 246 245 246 248 251 253 251 249 249 253 256 259 262 266 269 273 277
221 227 233 237 232 222 220 225 227 226 226 225 226 229 230 232 234 235 238 239 238 236 236 240 243 244 243 244 246 249 251 251 250 251 253 256 258 260 262 266 270 273
231 236 238 241 235 224 222 225 227 228 227 226 227 230 231 234 235 235 237 240 239 236 234 237 241 242 241 241 243 247 250 250 251 251 254 257 258 259 260 263 267 270
235 237 238 239 236 230 225 224 227 229 228 226 227 230 233 234 235 236 237 239 238 234 232 235 239 240 240 239 240 243 247 249 250 251 253 257 258 258 259 261 264 267
234 234 233 232 232 231 228 226 227 228 228 228 229 232 233 234 234 234 235 237 236 234 233 235 238 240 241 239 238 240 243 247 249 251 253 256 258 258 258 260 262 265
236 233 230 228 228 228 228 228 229 229 230 231 232 232 232 233 233 232 232 234 236 237 237 236 238 241 242 240 238 238 241 244 247 250 252 255 257 257 256 258 260 263
239 237 234 231 229 227 226 226 227 229 231 232 233 234 233 233 232 232 233 234 236 239 239 238 239 242 242 241 239 238 240 243 245 248 250 253 256 255 254 256 259 261
238 239 239 236 231 228 227 226 226 227 228 229 232 235 237 237 235 234 235 236 236 237 238 236 237 240 241 240 239 238 239 242 244 246 248 251 254 254 254 255 257 259
239 240 241 238 233 229 229 229 228 228 230 231 232 234 236 239 240 240 238 236 236 236 236 235 235 237 240 241 239 237 238 240 243 245 247 249 251 252 252 253 255 257
Height
5796 5799 5803 5807 5810 5813 5815 5817 5819 5821 5823 5823 5824 5827 5830 5831 5832 5834 5835 5835 5836 5837 5836 5836 5836 5835 5836 5836 5836 5836 5836 5836 5835 5834 5832 5831 5830 5829 5828 5827 5826 5824
5792 5794 5798 5802 5805 5807 5810 5812 5814 5817 5819 5820 5821 5822 5825 5827 5828 5830 5831 5832 5833 5833 5833 5833 5833 5833 5833 5833 5833 5833 5833 5833 5833 5832 5831 5829 5828 5827 5826 5825 5823 5822
5788 5789 5792 5797 5800 5802 5805 5807 5809 5812 5814 5816 5817 5818 5821 5823 5824 5826 5828 5828 5829 5830 5830 5830 5830 5830 5830 5830 5830 5830 5830 5830 5830 5830 5829 5827 5825 5824 5823 5822 5821 5820
5782 5785 5787 5791 5795 5797 5799 5801 5803 5806 5808 5811 5813 5814 5817 5819 5820 5822 5823 5824 5825 5826 5826 5826 5827 5827 5827 5828 5828 5828 5828 5828 5827 5827 5826 5825 5824 5822 5821 5821 5819 5818
5776 5779 5782 5786 5789 5791 5792 5794 5797 5800 5802 5805 5808 5809 5812 5814 5816 5818 5819 5820 5821 5822 5822 5823 5823 5823 5824 5824 5825 5825 5825 5825 5825 5824 5824 5823 5821 5820 5819 5819 5817 5816
5769 5772 5776 5779 5782 5784 5787 5789 5792 5794 5797 5800 5802 5804 5807 5809 5812 5813 5815 5816 5817 5818 5818 5819 5820 5820 5820 5821 5822 5822 5822 5822 5822 5821 5821 5820 5819 5818 5817 5816 5815 5814
5762 5766 5769 5772 5775 5778 5781 5784 5786 5789 5791 5794 5796 5799 5801 5804 5807 5809 5810 5811 5813 5814 5814 5815 5816 5817 5817 5817 5818 5819 5819 5819 5819 5819 5818 5818 5817 5816 5815 5814 5813 5812
5755 5758 5762 5765 5769 5772 5775 5778 5780 5783 5785 5787 5790 5793 5796 5800 5803 5805 5806 5807 5808 5809 5810 5811 5812 5813 5813 5814 5815 5816 5816 5816 5816 5816 5815 5815 5815 5814 5812 5811 5810 5809
5746 5750 5753 5757 5761 5764 5768 5771 5774 5777 5779 5781 5784 5787 5791 5794 5797 5799 5801 5802 5804 5805 5806 5807 5808 5809 5809 5810 5811 5812 5813 5813 5813 5813 5812 5812 5812 5811 5810 5809 5808 5807
5736 5741 5745 5749 5753 5757 5761 5764 5767 5770 5772 5775 5778 5781 5784 5788 5791 5793 5795 5797 5798 5800 5802 5803 5804 5805 5805 5806 5807 5808 5809 5810 5810 5810 5809 5809 5809 5809 5808 5806 5806 5804
5729 5732 5736 5741 5746 5749 5753 5757 5760 5763 5766 5768 5772 5775 5778 5781 5785 5787 5789 5791 5793 5796 5798 5799 5799 5800 5800 5802 5803 5804 5805 5806 5806 5806 5806 5806 5806 5806 5805 5804 5803 5802
5726 5727 5728 5733 5738 5742 5746 5750 5753 5756 5759 5762 5766 5769 5772 5775 5779 5782 5784 5786 5789 5791 5792 5794 5794 5795 5795 5797 5799 5800 5800 5801 5802 5803 5803 5803 5803 5803 5802 5801 5801 5800
5720 5722 5723 5725 5729 5734 5738 5743 5746 5750 5753 5757 5760 5763 5766 5769 5773 5776 5779 5781 5784 5786 5787 5788 5789 5789 5790 5792 5794 5795 5796 5797 5798 5799 5800 5800 5799 5799 5799 5799 5798 5797
5714 5718 5718 5718 5720 5725 5729 5734 5738 5742 5746 5750 5753 5757 5760 5763 5767 5770 5773 5776 5779 5780 5781 5783 5784 5784 5785 5787 5788 5790 5792 5792 5793 5795 5796 5796 5796 5796 5796 5795 5795 5794
5707 5711 5710 5708 5710 5715 5719 5724 5730 5734 5738 5742 5746 5750 5754 5758 5761 5764 5767 5770 5772 5774 5776 5777 5779 5780 5781 5782 5784 5785 5786 5788 5789 5790 5791 5792 5793 5792 5792 5792 5792 5791
5700 5703 5701 5698 5700 5706 5711 5716 5722 5726 5731 5735 5739 5744 5748 5752 5754 5757 5760 5763 5766 5768 5770 5772 5774 5776 5777 5778 5779 5780 5781 5782 5784 5785 5787 5788 5788 5789 5789 5789 5789 5788
5690 5693 5693 5691 5692 5698 5704 5710 5715 5719 5724 5728 5732 5737 5742 5745 5747 5749 5753 5757 5759 5761 5763 5766 5769 5771 5773 5774 5774 5775 5776 5777 5778 5780 5782 5783 5784 5785 5785 5785 5786 5785
5681 5684 5686 5686 5687 5692 5699 5704 5708 5712 5717 5722 5726 5731 5735 5738 5740 5743 5747 5750 5753 5754 5756 5759 5763 5767 5768 5769 5769 5770 5770 5771 5773 5775 5777 5778 5780 5780 5781 5781 5782 5782
5672 5676 5679 5681 5683 5688 5694 5698 5702 5706 5711 5715 5720 5724 5728 5730 5733 5737 5741 5743 5746 5748 5750 5753 5757 5761 5763 5764 5764 5765 5765 5766 5768 5770 5771 5773 5775 5776 5777 5777 5777 5778
5665 5668 5672 5676 5679 5683 5688 5692 5696 5701 5705 5709 5713 5717 5720 5723 5727 5731 5734 5737 5739 5742 5744 5746 5750 5755 5757 5758 5759 5759 5760 5761 5762 5764 5766 5768 5770 5771 5772 5773 5773 5773
5659 5663 5666 5671 5675 5679 5682 5686 5690 5695 5699 5702 5705 5709 5712 5716 5721 5724 5727 5731 5733 5735 5737 5740 5744 5748 5750 5752 5753 5754 5755 5755 5756 5758 5760 5762 5764 5766 5767 5768 5768 5769
5653 5658 5661 5665 5669 5672 5675 5679 5684 5688 5692 5695 5698 5701 5704 5708 5712 5717 5721 5724 5727 5729 5732 5734 5737 5741 5743 5746 5748 5748 5749 5749 5750 5752 5755 5757 5759 5761 5762 5763 5764 5764
5646 5651 5655 5658 5661 5664 5668 5672 5676 5680 5685 5688 5689 5692 5696 5700 5704 5708 5712 5716 5720 5723 5725 5728 5731 5734 5737 5739 5741 5742 5743 5743 5745 5747 5749 5752 5754 5756 5757 5758 5759 5760
5639 5642 5647 5650 5653 5656 5660 5664 5668 5672 5677 5681 5683 5685 5688 5692 5696 5700 5704 5707 5711 5715 5718 5721 5724 5727 5729 5732 5733 5735 5736 5738 5739 5741 5743 5746 5749 5750 5752 5753 5754 5755
5630 5634 5638 5642 5645 5649 5652 5656 5660 5664 5669 5672 5676 5679 5682 5684 5688 5691 5694 5698 5701 5705 5708 5711 5715 5719 5721 5723 5726 5728 5730 5732 5733 5734 5737 5740 5743 5744 5746 5748 5749 5750
5622 5626 5629 5633 5637 5641 5645 5649 5653 5657 5661 5664 5667 5671 5674 5677 5680 5682 5685 5688 5691 5695 5698 5701 5705 5710 5713 5716 5719 5721 5723 5725 5726 5728 5731 5734 5736 5738 5740 5742 5743 5745